カタログに戻る

COSMOS 1700 DEB

運用中GEO
NORAD 40924·DEBRIS·🇷🇺 Russia

打ち上げ Oct 25, 1985 から Baikonur Cosmodrome

Loading…

TLE

最新Source: Space-Track

元期: Sep 13, 2026, 19:12 UTC

1 40924U 85102G   26256.80066150  .00000092  00000-0  00000-0 0  9993
2 40924   9.5487 318.2651 0023404 142.7763 228.7678  1.00287007 68327

AllMySatでCOSMOS 1700 DEBをリアルタイム追跡

Download on the App Store